Corsicana, TX

2:21 PM CST on November 19, 2017 (GMT -0600)
Campbell-Corsicana Municipal

Weather History for KCRS - January, 2014

Change the Weather History Date:

Monday, January 6, 2014

  Actual Average (KTYR) Record (KTYR)
Temperature  
Mean Temperature 23 °F -  
Max Temperature 30 °F 55 °F 78 °F (1901)
Min Temperature 16 °F 37 °F 15 °F (1972)
Degree Days  
Heating Degree Days 42    
Moisture  
Dew Point 6 °F    
Average Humidity 49    
Maximum Humidity 68    
Minimum Humidity 33    
Precipitation  
Precipitation 0.00 in - - ()
Sea Level Pressure  
Sea Level Pressure 30.68 in    
Wind  
Wind Speed 12 mph (NNW)    
Max Wind Speed 22 mph    
Max Gust Speed 29 mph    
Visibility 10 miles    
Events      
Averages and records for this station are not official NWS values.
T = Trace of Precipitation, MM = Missing Value Source: NWS Daily Summary

Daily Weather History Graph

Daily Weather History Graph

Search for Another Location

Airport or City:

Trip Planner

Search our weather history database for the weather conditions in past years. The results will help you decide how hot, cold, wet, or windy it might be!

Date:

Astronomy

Jan. 06, 2014 Rise Set
Actual Time 7:27 AM CST 5:36 PM CST
Civil Twilight 7:00 AM CST 6:03 PM CST
Nautical Twilight 6:29 AM CST 6:33 PM CST
Astronomical Twilight 6:00 AM CST 7:03 PM CST
Moon 11:05 AM CST (1/6) 11:46 PM CST (1/6)
Length of Visible Light 11h 02m
Length of Day
10h 09m
Waxing Crescent, 35% of the Moon is Illuminated
Jan 6
Waxing Crescent
Jan 7
First Quarter
Jan 15
Full
Jan 23
Last Quarter
Jan 30
New

Hourly Weather History & Observations

Time (CST) Temp. Windchill Dew Point Humidity Pressure Visibility Wind Dir Wind Speed Gust Speed Precip Events Conditions
12:53 AM 21.9 °F 7.8 °F 9.0 °F 58% 30.56 in 10.0 mi North 17.3 mph 26.5 mph N/A   Clear
1:53 AM 21.0 °F 5.0 °F 7.0 °F 55% 30.58 in 10.0 mi North 21.9 mph 28.8 mph N/A   Clear
2:53 AM 19.9 °F 5.2 °F 5.0 °F 52% 30.58 in 10.0 mi North 17.3 mph 28.8 mph N/A   Clear
3:53 AM 19.0 °F 7.5 °F 3.9 °F 52% 30.62 in 10.0 mi North 10.4 mph - N/A   Clear
4:53 AM 18.0 °F 5.4 °F 3.9 °F 54% 30.65 in 10.0 mi North 11.5 mph - N/A   Clear
5:53 AM 17.1 °F 5.8 °F 3.0 °F 54% 30.67 in 10.0 mi North 9.2 mph - N/A   Clear
6:53 AM 16.0 °F 2.9 °F 3.0 °F 57% 30.69 in 10.0 mi North 11.5 mph - N/A   Clear
7:53 AM 16.0 °F 4.4 °F 3.0 °F 57% 30.73 in 10.0 mi NNW 9.2 mph - N/A   Clear
8:53 AM 19.0 °F 7.5 °F 1.9 °F 47% 30.76 in 10.0 mi North 10.4 mph - N/A   Clear
9:53 AM 21.0 °F 8.6 °F 1.0 °F 42% 30.78 in 10.0 mi North 12.7 mph - N/A   Clear
10:53 AM 23.0 °F 13.9 °F 3.0 °F 42% 30.78 in 10.0 mi NNW 8.1 mph 18.4 mph N/A   Clear
11:53 AM 26.1 °F 15.6 °F 5.0 °F 41% 30.75 in 10.0 mi NNW 11.5 mph 20.7 mph N/A   Clear
12:53 PM 28.0 °F 18.1 °F 6.1 °F 39% 30.72 in 10.0 mi NNW 11.5 mph 17.3 mph N/A   Clear
1:53 PM 28.9 °F 20.4 °F 5.0 °F 36% 30.71 in 10.0 mi North 9.2 mph 18.4 mph N/A   Clear
2:53 PM 30.0 °F 20.5 °F 5.0 °F 35% 30.69 in 10.0 mi NNW 11.5 mph 17.3 mph N/A   Clear
3:53 PM 30.9 °F 21.2 °F 5.0 °F 33% 30.67 in 10.0 mi North 12.7 mph - N/A   Clear
4:53 PM 30.0 °F 21.7 °F 3.9 °F 33% 30.67 in 10.0 mi North 9.2 mph - N/A   Clear
5:53 PM 27.0 °F 21.6 °F 5.0 °F 39% 30.67 in 10.0 mi NW 4.6 mph - N/A   Clear
6:53 PM 25.0 °F - 8.1 °F 49% 30.67 in 10.0 mi Calm Calm - N/A   Clear
7:53 PM 23.0 °F 15.8 °F 10.0 °F 58% 30.69 in 10.0 mi SW 5.8 mph - N/A   Clear
8:53 PM 23.0 °F 17.0 °F 9.0 °F 55% 30.69 in 10.0 mi WSW 4.6 mph - N/A   Clear
9:53 PM 21.9 °F 14.5 °F 9.0 °F 58% 30.66 in 10.0 mi SW 5.8 mph - N/A   Clear
10:53 PM 21.0 °F 12.4 °F 10.9 °F 65% 30.66 in 10.0 mi SW 6.9 mph - N/A   Clear
11:53 PM 19.9 °F 12.1 °F 10.9 °F 68% 30.65 in 10.0 mi SSW 5.8 mph - N/A   Clear